Vorticity
2 3 0 1 14 17 9 4 3 5 11 18 11 6 8 8 9 6 13 5 10 9 7 5 5 5 4 4 5 7 8 8 9 8 8 7 7 8 8 9 6 9 6
13 10 3 14 10 15 6 8 4 5 10 15 15 11 8 6 7 5 -2 11 13 8 6 5 4 4 4 6 7 7 8 9 8 7 7 7 7 8 9 8 12 8 7
7 12 16 0 6 8 5 6 5 8 12 15 12 10 9 6 8 12 3 10 9 6 5 4 4 4 6 6 6 8 8 7 7 7 6 10 6 6 6 6 6 8 8
20 10 6 3 9 6 5 7 4 10 13 14 15 14 10 11 12 17 7 8 7 5 3 4 4 6 6 6 6 9 8 6 6 7 8 9 9 9 9 8 9 6 7
12 19 1 11 9 2 -0 0 1 10 13 10 9 9 12 11 9 8 8 6 4 3 3 3 4 4 6 6 7 9 7 6 7 8 8 8 7 7 8 9 8 7 5
28 19 10 11 6 9 4 2 6 10 12 9 11 12 13 10 10 10 7 4 2 2 2 2 3 4 5 6 7 8 6 7 9 8 9 9 9 7 7 7 6 4 2
23 16 7 6 4 1 8 1 6 7 11 10 11 10 8 6 6 4 3 2 2 2 2 3 3 5 5 5 8 8 7 8 9 9 9 8 7 7 7 6 5 4 3
20 18 17 7 3 -0 7 3 4 6 12 11 9 7 7 8 7 3 2 2 1 2 1 3 3 5 5 6 9 7 8 9 9 9 7 7 7 7 6 6 7 5 3
21 13 11 19 4 -3 9 8 5 7 13 9 8 8 9 8 3 1 1 1 2 2 2 2 3 5 6 8 8 8 9 9 9 7 7 7 7 6 7 7 8 7 10
11 15 11 21 22 9 10 7 6 8 14 10 7 7 7 4 2 2 1 2 2 2 2 2 4 6 6 9 8 9 9 9 7 7 7 7 6 7 8 8 9 8 7
14 15 9 22 5 7 6 6 6 10 11 10 7 6 6 3 2 1 1 2 3 2 3 2 6 5 8 8 9 9 9 8 7 8 7 7 7 8 9 8 7 7 8
-2 16 10 19 12 9 -0 6 8 9 13 9 6 5 4 2 2 2 2 3 3 3 2 4 6 7 8 9 9 9 7 7 8 7 7 7 8 9 8 7 8 9 13
14 20 16 20 14 7 6 11 9 9 13 8 6 5 4 3 2 2 2 2 3 4 3 5 7 9 10 9 9 7 7 8 7 7 8 8 8 8 8 8 11 14 15
34 23 22 22 16 13 12 8 7 12 11 7 5 4 3 3 3 3 3 3 4 3 5 8 9 10 10 9 7 7 8 7 7 9 9 8 8 9 9 14 16 15 15
11 13 16 14 10 9 8 7 9 14 9 6 5 4 4 3 3 3 4 4 5 5 8 9 10 10 9 7 7 7 7 8 8 8 7 9 8 12 16 15 16 15 19
11 10 10 11 9 7 8 14 15 10 7 5 5 5 5 4 4 5 5 6 5 8 9 9 10 9 7 7 8 7 8 8 7 7 10 9 12 15 16 16 15 18 16
12 11 8 9 10 14 16 15 11 8 6 6 6 5 6 6 7 6 6 5 8 9 9 9 8 7 7 8 8 8 8 6 9 11 9 12 16 16 14 13 16 14 15
12 10 9 10 11 13 13 10 8 7 7 7 7 9 9 9 7 7 5 9 8 9 10 8 6 7 8 8 8 7 6 10 11 9 13 16 16 14 16 16 12 14 19
14 14 13 13 11 11 9 8 8 9 10 10 11 11 9 6 6 7 9 8 9 10 7 6 7 8 9 8 7 7 11 11 9 11 16 18 14 15 15 11 13 16 16
6 9 9 9 8 8 9 8 9 10 10 11 9 6 6 6 8 8 7 9 9 6 6 8 8 9 7 8 8 10 10 9 10 16 18 14 14 16 14 14 15 15 11
7 4 4 6 8 9 9 10 11 11 9 7 5 7 7 7 7 8 11 8 6 7 8 8 8 9 9 8 10 10 9 10 15 17 14 16 15 14 15 16 14 11 15
7 9 8 7 8 8 9 10 9 7 6 6 6 7 7 8 9 10 6 6 7 8 7 7 8 9 8 10 9 10 12 15 15 13 17 15 14 15 16 15 11 14 11
10 9 7 7 8 12 9 5 6 6 6 7 7 8 8 10 8 6 7 8 8 7 8 8 8 7 10 9 10 11 14 14 13 15 16 13 14 16 17 12 15 10 9
8 9 12 12 12 7 6 7 7 8 8 8 8 9 9 7 7 8 7 8 7 8 8 7 8 9 8 9 11 12 17 13 14 15 13 14 15 17 13 17 13 11 11
12 12 12 8 7 7 7 9 8 7 7 8 8 9 8 8 7 7 7 8 8 8 8 9 9 8 9 11 14 15 13 14 14 12 13 15 18 13 19 13 14 12 8
14 11 8 7 8 10 8 7 7 8 8 9 10 9 8 7 7 7 8 9 9 9 8 8 8 8 12 15 14 14 14 15 12 12 14 17 13 17 12 12 11 9 9
Height
3063 3068 3073 3076 3077 3080 3084 3087 3089 3089 3090 3092 3093 3095 3097 3099 3099 3100 3101 3100 3101 3101 3100 3100 3099 3098 3096 3094 3091 3088 3086 3083 3080 3078 3075 3071 3069 3067 3064 3061 3058 3055 3051
3055 3061 3066 3069 3072 3075 3078 3080 3082 3083 3084 3085 3087 3090 3092 3094 3094 3096 3097 3097 3097 3097 3096 3096 3095 3094 3092 3089 3086 3083 3079 3077 3074 3071 3068 3066 3065 3061 3058 3055 3051 3047 3044
3045 3052 3058 3062 3065 3069 3072 3074 3076 3077 3078 3078 3081 3084 3087 3089 3090 3091 3093 3093 3093 3093 3093 3092 3091 3089 3087 3084 3081 3078 3074 3071 3067 3063 3060 3054 3051 3048 3049 3049 3045 3040 3037
3035 3042 3048 3053 3058 3062 3066 3069 3071 3071 3072 3073 3076 3079 3082 3084 3085 3086 3089 3089 3089 3089 3089 3088 3087 3085 3082 3079 3075 3071 3068 3064 3061 3056 3052 3047 3042 3037 3032 3034 3034 3029 3025
3026 3032 3039 3046 3051 3055 3060 3063 3066 3067 3068 3070 3073 3074 3077 3079 3081 3082 3084 3085 3086 3086 3085 3084 3082 3079 3077 3073 3069 3065 3062 3058 3053 3049 3045 3041 3036 3031 3023 3016 3019 3019 3016
3017 3025 3031 3037 3042 3047 3053 3057 3061 3062 3065 3066 3069 3071 3073 3076 3078 3079 3081 3081 3082 3082 3081 3079 3077 3074 3071 3067 3063 3059 3055 3050 3046 3041 3036 3031 3026 3022 3015 3006 3001 2995 2995
3008 3014 3021 3028 3035 3040 3046 3051 3055 3058 3060 3063 3065 3067 3070 3072 3074 3075 3077 3078 3077 3077 3076 3074 3071 3068 3065 3061 3057 3052 3047 3043 3038 3033 3029 3023 3017 3011 3005 2998 2992 2984 2979
2999 3006 3015 3022 3029 3036 3041 3046 3050 3053 3056 3058 3061 3063 3066 3068 3070 3072 3073 3073 3073 3072 3070 3068 3065 3062 3058 3054 3049 3045 3040 3034 3029 3024 3019 3014 3008 3001 2995 2988 2979 2970 2967
2995 3001 3008 3014 3023 3030 3036 3041 3045 3049 3051 3054 3057 3059 3062 3064 3066 3067 3068 3068 3068 3066 3065 3062 3059 3056 3052 3047 3042 3036 3031 3026 3021 3015 3010 3004 2998 2992 2985 2978 2970 2960 2948
2990 2994 3001 3008 3016 3025 3031 3035 3040 3044 3047 3050 3053 3056 3059 3060 3062 3063 3063 3063 3063 3061 3059 3056 3053 3048 3043 3038 3033 3028 3022 3018 3013 3007 3001 2995 2988 2981 2975 2967 2959 2951 2941
2985 2991 2997 3003 3011 3019 3024 3029 3034 3039 3042 3046 3049 3052 3054 3056 3057 3058 3059 3058 3057 3055 3053 3049 3045 3040 3035 3030 3025 3020 3015 3009 3004 2998 2991 2985 2977 2971 2963 2955 2946 2937 2928
2978 2984 2990 2997 3005 3012 3019 3024 3029 3034 3038 3042 3045 3048 3050 3052 3053 3054 3054 3053 3051 3049 3046 3042 3038 3033 3028 3022 3016 3011 3006 3000 2994 2988 2981 2974 2966 2959 2950 2941 2932 2924 2915
2972 2978 2983 2990 2999 3008 3014 3020 3025 3030 3034 3037 3041 3044 3046 3048 3049 3049 3048 3047 3045 3043 3039 3035 3030 3025 3020 3015 3008 3002 2996 2990 2984 2977 2970 2962 2953 2945 2936 2927 2918 2910 2901
2967 2974 2980 2987 2996 3005 3011 3016 3021 3026 3030 3034 3037 3039 3042 3043 3044 3043 3042 3041 3039 3036 3032 3028 3022 3017 3012 3006 2999 2993 2987 2982 2975 2968 2959 2950 2942 2933 2924 2914 2905 2895 2886
2969 2974 2981 2988 2996 3003 3008 3012 3018 3023 3027 3030 3033 3036 3037 3038 3038 3038 3036 3035 3032 3028 3024 3019 3014 3008 3002 2996 2990 2984 2978 2972 2964 2956 2948 2939 2930 2921 2912 2902 2893 2883 2875
2969 2976 2983 2990 2996 3001 3006 3011 3015 3020 3024 3027 3030 3031 3032 3033 3033 3032 3030 3028 3024 3020 3016 3011 3006 3000 2993 2987 2982 2975 2968 2961 2953 2945 2937 2928 2920 2910 2902 2893 2883 2875 2866
2972 2978 2985 2991 2996 3001 3005 3010 3014 3017 3021 3024 3026 3027 3027 3028 3027 3026 3024 3020 3017 3012 3007 3002 2996 2991 2985 2980 2974 2967 2959 2950 2942 2934 2927 2918 2908 2899 2890 2882 2873 2865 2859
2974 2979 2985 2990 2995 3000 3004 3007 3011 3015 3017 3019 3021 3022 3022 3022 3021 3020 3017 3013 3009 3004 2999 2994 2989 2983 2977 2971 2964 2956 2948 2941 2933 2925 2916 2907 2898 2888 2877 2868 2860 2856 2851
2976 2981 2986 2991 2995 2999 3002 3006 3009 3011 3014 3015 3016 3017 3017 3017 3015 3013 3009 3006 3002 2997 2992 2987 2982 2976 2970 2962 2954 2946 2939 2931 2923 2915 2905 2896 2885 2876 2867 2859 2852 2848 2843
2977 2982 2987 2991 2994 2998 3001 3004 3006 3008 3010 3011 3012 3012 3012 3011 3009 3005 3002 2999 2995 2990 2985 2980 2974 2967 2960 2952 2944 2937 2928 2920 2911 2905 2895 2885 2875 2868 2861 2853 2845 2839 2834
2979 2983 2987 2991 2994 2997 2999 3001 3003 3005 3006 3007 3008 3007 3006 3004 3002 2999 2996 2992 2988 2983 2977 2973 2966 2959 2951 2944 2936 2929 2920 2910 2901 2892 2884 2876 2868 2861 2854 2847 2840 2833 2827
2980 2983 2987 2990 2992 2995 2997 2999 3001 3003 3004 3004 3003 3002 3000 2999 2996 2993 2989 2985 2980 2976 2970 2964 2959 2952 2944 2936 2929 2921 2912 2901 2891 2883 2876 2868 2860 2854 2847 2841 2834 2828 2822
2980 2983 2986 2989 2992 2994 2996 2998 2999 2999 2999 2999 2998 2997 2995 2993 2990 2987 2983 2979 2974 2968 2962 2955 2949 2943 2937 2929 2920 2911 2902 2893 2883 2876 2869 2861 2854 2848 2842 2835 2829 2823 2817
2980 2983 2986 2988 2990 2992 2994 2995 2996 2996 2996 2995 2994 2992 2990 2988 2985 2982 2978 2973 2967 2961 2954 2946 2940 2933 2927 2918 2909 2899 2890 2882 2875 2868 2861 2855 2848 2841 2836 2831 2826 2820 2814
2979 2982 2984 2987 2989 2991 2992 2993 2993 2992 2991 2990 2989 2987 2985 2983 2980 2975 2971 2966 2959 2951 2944 2937 2930 2922 2915 2906 2897 2888 2881 2874 2868 2861 2856 2849 2843 2837 2832 2828 2822 2816 2811
2980 2982 2984 2986 2988 2989 2989 2989 2989 2988 2988 2987 2985 2983 2981 2977 2974 2970 2965 2958 2952 2945 2938 2931 2923 2915 2907 2899 2891 2883 2877 2870 2862 2857 2849 2843 2837 2832 2827 2822 2818 2812 2807